Nebraska City, NE

8:57 PM CDT on August 31, 2016 (GMT -0500)
Nebraska City Municipal

Weather History for KAFK - November, 2013

Change the Weather History Date:

Saturday, November 16, 2013

  Actual Average (KSDA) Record (KSDA)
Temperature  
Mean Temperature 58 °F -  
Max Temperature 69 °F 51 °F 77 °F (2001)
Min Temperature 47 °F 29 °F 4 °F (1955)
Degree Days  
Heating Degree Days 7    
Growing Degree Days 8 (Base 50)    
Moisture  
Dew Point 42 °F    
Average Humidity 64    
Maximum Humidity 100    
Minimum Humidity 29    
Precipitation  
Precipitation 0.00 in - - ()
Sea Level Pressure  
Sea Level Pressure 29.43 in    
Wind  
Wind Speed 15 mph (SSW)    
Max Wind Speed 32 mph    
Max Gust Speed 38 mph    
Visibility 10 miles    
Events      
Averages and records for this station are not official NWS values.
T = Trace of Precipitation, MM = Missing Value Source: NWS Daily Summary

Daily Weather History Graph

Daily Weather History Graph

Search for Another Location

Airport or City:

Trip Planner

Search our weather history database for the weather conditions in past years. The results will help you decide how hot, cold, wet, or windy it might be!

Date:

Astronomy

Nov. 16, 2013 Rise Set
Actual Time 7:11 AM CST 5:04 PM CST
Civil Twilight 6:42 AM CST 5:34 PM CST
Nautical Twilight 6:08 AM CST 6:07 PM CST
Astronomical Twilight 5:36 AM CST 6:39 PM CST
Moon 4:40 PM CST (11/16) 6:08 AM CST (11/16)
Length of Visible Light 10h 51m
Length of Day
9h 53m
Waxing Gibbous, 99% of the Moon is Illuminated
Nov 16
Waxing Gibbous
Nov 17
Full
Nov 25
Last Quarter
Dec 2
New
Dec 9
First Quarter

Hourly Weather History & Observations

Time (CST) Temp. Dew Point Humidity Pressure Visibility Wind Dir Wind Speed Gust Speed Precip Events Conditions
12:15 AM 48.4 °F 43.7 °F 84% 29.62 in 10.0 mi South 12.7 mph - N/A   Clear
12:35 AM 48.6 °F 44.1 °F 84% 29.61 in 10.0 mi South 13.8 mph - N/A   Clear
12:55 AM 48.6 °F 44.2 °F 85% 29.60 in 10.0 mi South 11.5 mph - N/A   Clear
1:15 AM 48.2 °F 44.2 °F 86% 29.60 in 10.0 mi South 9.2 mph 16.1 mph N/A   Clear
1:35 AM 48.0 °F 44.4 °F 87% 29.59 in 10.0 mi South 11.5 mph - N/A   Clear
1:55 AM 48.2 °F 44.8 °F 88% 29.58 in 10.0 mi South 12.7 mph - N/A   Clear
2:15 AM 48.2 °F 44.8 °F 88% 29.57 in 10.0 mi South 12.7 mph 18.4 mph N/A   Clear
2:35 AM 48.2 °F 45.0 °F 89% 29.56 in 10.0 mi South 15.0 mph - N/A   Clear
2:55 AM 48.2 °F 44.8 °F 88% 29.55 in 10.0 mi South 15.0 mph 20.7 mph N/A   Clear
3:15 AM 47.8 °F 45.3 °F 91% 29.53 in 10.0 mi South 16.1 mph 21.9 mph N/A   Clear
3:35 AM 47.7 °F 46.0 °F 94% 29.52 in 7.0 mi South 15.0 mph - N/A   Clear
3:55 AM 48.0 °F 46.8 °F 95% 29.51 in 7.0 mi South 15.0 mph - N/A   Clear
4:15 AM 47.8 °F 47.3 °F 98% 29.50 in 7.0 mi South 15.0 mph - N/A   Clear
4:35 AM 48.0 °F 47.8 °F 99% 29.49 in 7.0 mi South 13.8 mph - N/A   Scattered Clouds
4:55 AM 48.2 °F 48.2 °F 100% 29.48 in 7.0 mi South 15.0 mph - N/A   Mostly Cloudy
5:15 AM 48.7 °F 48.7 °F 100% 29.46 in 7.0 mi South 12.7 mph - N/A   Overcast
5:35 AM 50.0 °F 50.0 °F 100% 29.45 in 7.0 mi South 16.1 mph 19.6 mph N/A   Overcast
5:55 AM 50.4 °F 50.4 °F 100% 29.43 in 7.0 mi South 13.8 mph 20.7 mph N/A   Overcast
6:15 AM 50.4 °F 50.4 °F 100% 29.42 in 7.0 mi SSE 12.7 mph - N/A   Overcast
6:35 AM 51.4 °F 51.4 °F 100% 29.42 in 7.0 mi South 15.0 mph - N/A   Overcast
6:55 AM 52.9 °F 52.7 °F 99% 29.41 in 10.0 mi South 18.4 mph - N/A   Scattered Clouds
7:15 AM 54.7 °F 54.1 °F 98% 29.40 in 10.0 mi South 23.0 mph 27.6 mph N/A   Clear
7:35 AM 55.4 °F 54.3 °F 96% 29.40 in 10.0 mi South 20.7 mph 27.6 mph N/A   Clear
7:55 AM 56.3 °F 54.7 °F 94% 29.39 in 10.0 mi South 23.0 mph 27.6 mph N/A   Clear
8:15 AM 56.5 °F 54.9 °F 94% 29.40 in 10.0 mi South 21.9 mph 27.6 mph N/A   Clear
8:35 AM 57.2 °F 55.2 °F 93% 29.39 in 10.0 mi South 23.0 mph 27.6 mph N/A   Clear
8:55 AM 58.3 °F 55.2 °F 90% 29.39 in 10.0 mi South 23.0 mph 29.9 mph N/A   Clear
9:15 AM 60.6 °F 53.8 °F 78% 29.39 in 10.0 mi South 23.0 mph 28.8 mph N/A   Clear
9:35 AM 61.9 °F 53.6 °F 74% 29.39 in 10.0 mi SSW 21.9 mph 28.8 mph N/A   Clear
9:55 AM 61.7 °F 52.7 °F 72% 29.40 in 10.0 mi SSW 24.2 mph 33.4 mph N/A   Scattered Clouds
10:15 AM 62.4 °F 52.3 °F 70% 29.40 in 10.0 mi SSW 24.2 mph 33.4 mph N/A   Mostly Cloudy
10:35 AM 63.3 °F 52.2 °F 67% 29.39 in 10.0 mi SSW 21.9 mph 28.8 mph N/A   Mostly Cloudy
10:55 AM 63.0 °F 52.0 °F 67% 29.37 in 10.0 mi SSW 21.9 mph 34.5 mph N/A   Mostly Cloudy
11:15 AM 63.9 °F 54.0 °F 70% 29.38 in 10.0 mi SSW 23.0 mph 32.2 mph N/A   Overcast
11:35 AM 64.8 °F 52.3 °F 64% 29.37 in 10.0 mi SSW 21.9 mph 33.4 mph N/A   Mostly Cloudy
11:55 AM 65.5 °F 50.2 °F 58% 29.36 in 10.0 mi SW 32.2 mph 38.0 mph N/A   Mostly Cloudy
12:15 PM 65.3 °F 50.0 °F 58% 29.35 in 10.0 mi SW 23.0 mph 35.7 mph N/A   Overcast
12:35 PM 65.5 °F 48.0 °F 53% 29.34 in 10.0 mi SW 21.9 mph 32.2 mph N/A   Mostly Cloudy
12:55 PM 67.6 °F 47.5 °F 48% 29.35 in 10.0 mi WSW 24.2 mph 31.1 mph N/A   Scattered Clouds
1:15 PM 68.5 °F 47.1 °F 46% 29.35 in 10.0 mi WSW 20.7 mph 34.5 mph N/A   Clear
1:35 PM 68.5 °F 46.0 °F 44% 29.35 in 10.0 mi WSW 29.9 mph 35.7 mph N/A   Clear
1:55 PM 68.7 °F 41.7 °F 37% 29.34 in 10.0 mi SW 23.0 mph - N/A   Clear
2:15 PM 69.3 °F 40.6 °F 35% 29.35 in 10.0 mi WSW 23.0 mph 29.9 mph N/A   Clear
2:35 PM 69.3 °F 38.8 °F 33% 29.35 in 10.0 mi WSW 19.6 mph 28.8 mph N/A   Clear
2:55 PM 68.0 °F 36.9 °F 32% 29.36 in 10.0 mi West 17.3 mph 23.0 mph N/A   Clear
3:15 PM 67.1 °F 36.5 °F 32% 29.37 in 10.0 mi West 17.3 mph - N/A   Clear
3:35 PM 66.6 °F 34.7 °F 31% 29.37 in 10.0 mi WSW 13.8 mph - N/A   Clear
3:55 PM 66.2 °F 32.5 °F 29% 29.37 in 10.0 mi WSW 13.8 mph 17.3 mph N/A   Clear
4:15 PM 65.1 °F 33.3 °F 31% 29.38 in 10.0 mi WSW 10.4 mph - N/A   Clear
4:35 PM 63.1 °F 32.0 °F 31% 29.40 in 10.0 mi WSW 9.2 mph - N/A   Clear
4:55 PM 60.1 °F 31.5 °F 34% 29.40 in 10.0 mi WSW 10.4 mph - N/A   Clear
5:15 PM 56.5 °F 31.1 °F 38% 29.40 in 10.0 mi WSW 8.1 mph - N/A   Clear
5:35 PM 56.1 °F 30.7 °F 38% 29.41 in 10.0 mi SSW 6.9 mph - N/A   Clear
5:55 PM 54.7 °F 30.2 °F 39% 29.42 in 10.0 mi SSW 8.1 mph - N/A   Clear
6:15 PM 55.6 °F 29.5 °F 37% 29.42 in 10.0 mi SW 9.2 mph - N/A   Clear
6:35 PM 53.6 °F 29.3 °F 39% 29.41 in 10.0 mi West 9.2 mph - N/A   Clear
6:55 PM 52.7 °F 28.8 °F 40% 29.39 in 10.0 mi WNW 10.4 mph - N/A   Clear
7:15 PM 53.4 °F 28.0 °F 38% 29.40 in 10.0 mi West 8.1 mph - N/A   Clear
7:35 PM 54.1 °F 28.2 °F 37% 29.40 in 10.0 mi West 8.1 mph - N/A   Scattered Clouds
7:55 PM 49.8 °F 30.4 °F 47% 29.42 in 10.0 mi SSW 6.9 mph - N/A   Mostly Cloudy
8:15 PM 51.1 °F 30.9 °F 46% 29.42 in 10.0 mi South 9.2 mph - N/A   Mostly Cloudy
8:35 PM 51.1 °F 31.1 °F 46% 29.41 in 10.0 mi Calm Calm - N/A   Mostly Cloudy
8:55 PM 52.2 °F 30.4 °F 43% 29.42 in 10.0 mi Calm Calm - N/A   Mostly Cloudy
9:15 PM 52.9 °F 30.6 °F 43% 29.41 in 10.0 mi Calm Calm - N/A   Scattered Clouds
9:35 PM 51.3 °F 30.9 °F 46% 29.41 in 10.0 mi ESE 3.5 mph - N/A   Scattered Clouds
9:55 PM 53.1 °F 30.0 °F 41% 29.41 in 10.0 mi Calm Calm - N/A   Mostly Cloudy
10:15 PM 54.1 °F 29.3 °F 39% 29.40 in 10.0 mi SE 5.8 mph - N/A   Mostly Cloudy
10:35 PM 55.4 °F 30.6 °F 39% 29.39 in 10.0 mi SE 6.9 mph - N/A   Mostly Cloudy
10:55 PM 56.1 °F 32.2 °F 40% 29.39 in 10.0 mi SE 3.5 mph - N/A   Overcast
11:15 PM 55.9 °F 32.0 °F 40% 29.39 in 10.0 mi SE 3.5 mph - N/A   Overcast
11:35 PM 53.6 °F 33.4 °F 46% 29.38 in 10.0 mi NE 3.5 mph - N/A   Overcast
11:55 PM 52.0 °F 34.0 °F 50% 29.37 in 10.0 mi NNE 4.6 mph - N/A   Overcast